STARLINK-34919 (65802 NORAD) Tracking and Keplerian Element Data

This shows tracking and keplerian element data for the satellite.

Feedback or suggestion? Click here.




ElementValue
Catalog65802
NameSTARLINK-34919
Epoch Orbit1300
Epoch Day354.15780596
Epoch Year2025
RAAN214.5794
Inclination97.6031
Eccentricity0.0002096
Argument of Perigee85.698
Mean Anonmoly274.4486
Mean Motion15.05652402
Decay Rate3.11E-05
L11 65802U 25218M 25354.15780596 .00003110 00000+0 21963-3 0 9997
L22 65802 97.6031 214.5794 0002096 85.6980 274.4486 15.05652402 13003



Live tracking and technical data element details for STARLINK-34919 (NORAD 65802). STARLINK-34919 can be tracked NOW for your location showing map with azimuth and elevation plus other details from your city location.







IsCatalogInMostPopularTable: catalog: 65802, numindb: 5
Update: records affected: 1



GetName: 65802 STARLINK-34919

Hit Count: updated at: Sat, 11 Apr 2026 21:28:32 GMT